{"data":{"norad_id":53623,"epoch":"2026-05-24T15:30:56.672064Z","epoch_age_seconds":109512,"freshness":"FRESH","line1":"1 53623U 22104AM  26144.64648926 -.00000704  00000+0 -26113-4 0  9999","line2":"2 53623  53.2154 253.0127 0001308  90.2302 269.8840 15.08843374207211","mean_motion":15.08843374,"eccentricity":0.0001308,"inclination_deg":53.2154,"raan_deg":253.0127,"arg_perigee_deg":90.2302,"mean_anomaly_deg":269.884,"bstar":-2.6113e-5,"rev_number":20721,"period_min":95.437341265085,"perigee_km":538.82821860917,"apogee_km":540.63793342105,"semimajor_km":6917.8700760151,"source":"CELESTRAK","updated_at":"2026-05-25T13:38:17.479756Z"}}